Location: Glencliff
(36.1226°N, 86.7183°W)
Time: 13:49:27
(UTC+00:00)

Unknown - Pass Details

Date: 25 August 2019
Orbit: 549 x 551 km, 53.0° (Epoch: 19 September)

Event Time Altitude Azimuth Distance (km) Brightness Sun altitude
Rises 00:49:43 0° 314° (NW) 2,720 8.5 -5.5°
Reaches altitude 10° 00:51:57 10° 315° (NW) 1,824 7.5 -5.9°
Maximum altitude 00:56:07 82° 44° (NE) 558 3.6 -6.7°
Drops below altitude 10° 01:00:14 10° 132° (SE) 1,816 5.7 -7.5°
Enters shadow 01:00:43 - 132° (SE) 2,004 5.9 -7.6°
